FENGYUN 1C DEB, 31807

Orbit data source: Space-Track

FENGYUN 1C DEB, 31807 is space debris in SSO originally from a launch on Mon, 10 May 1999 UTC launched from the Taiyaun Space Center, China (TSC). Fengyun 1C debris stems from the Chinese weather satellite Fengyun-1C, which was intentionally destroyed by a Chinese anti-satellite missile in 2007. This event dramatically increased the amount of space debris, with thousands of trackable fragments posing hazards to satellites and human spaceflight. The Fengyun 1C debris cloud has become a focal point in discussions about space sustainability and the need for international regulations to prevent the creation of new debris.

Loading next visibility...
Identifier
31807, 1999-025CGV
Orbit
SSO
Country
Flag of CNCN / PRC
Related business
Manufacturer
Unknown
Mission
Spacecraft
Bus & Motor
Unknown
Mass
Unknown
Launch date (UTC)
1999-05-10 (27 years ago)
Launch vehicle
Unknown
Launch site
Taiyaun Space Center, China (TSC)
Object type
Payload
Rocket body
Debris
Shape & HBR
Unknown shape, 0.1 m
Radar Cross Section
Medium (>0.1 m² and <1 m²)

Expand to show TLE details & history
Last TLE update: 3 days ago

TLE from 3 days ago
0 FENGYUN 1C DEB
1 31807U 99025CGV 26163.14019295  .00001789  00000-0  41577-3 0  9995
2 31807  99.0989 314.1062 0102456 338.3343  21.3531 14.53237155679392
Epoch: 2026-06-12T03:21Z
TLE epoch observation values (Epoch: 2026-06-12T03:21:52.670Z)
Latitude
-0.00004°
Longitude
3.16284°
Altitude
650.443 km
Speed
7.568 km/s
True Right ascension
20h 56m 25s
True Declination
0° 00' 00"
Sunlit
Object was in full shadow at epoch
Visualization orbit readout
Latitude
Unknown
Longitude
Unknown
Altitude
Unknown
Speed
Unknown
Apparent Right ascension
Unknown
Apparent Declination
Unknown
Sunlit
N/A
Visualization observer readout
Local Sidereal Time
01:17:26
Azimuth
Unknown
Elevation
Unknown
Doppler factor
Unknown
Orbital elements
Apogee altitude
784.873 km
Perigee altitude
639.583 km
Semi-major axis
7,090.365 km
Eccentricity
0.01025
Inclination
99.0989°
RAAN
314.1062°
Arg. of periapsis
338.3343°
True anomaly
21.78575°
Mean anomaly
21.3531°
Eccentric anomaly
21.5689°
Mean motion
3.6353 °/min
Orbital period
99.03 mins
BSTAR
0.00041577
Loading maneuver chart data...
Computing Atmospheric mass density...

Documentation

Showing up to 5 results
|